• In United Kingdom
  • List of Countries
  • For 7 days
  • Water Temperature
  • Satellite Maps
  • Weather Map
  • Weather Widgets
  • user-avatar
    Login

    Hourly Weather Zaranj

    Today, 20 April, Friday

    Time Temperature Precipitation Wind Pressure Humidity
    00:00 +17°C° 0 mm 5 mps 719 mmHg 26%
    01:00 +16°C° 0 mm 5 mps 718 mmHg 27%
    02:00 +16°C° 0 mm 5 mps 718 mmHg 28%
    03:00 +15°C° 0 mm 5 mps 718 mmHg 30%
    04:00 +15°C° 0 mm 4 mps 718 mmHg 31%
    05:00 +15°C° 0 mm 4 mps 718 mmHg 30%
    06:00 +17°C° 0 mm 4 mps 718 mmHg 29%
    07:00 +17°C° 0 mm 4 mps 718 mmHg 27%
    08:00 +18°C° 0 mm 4 mps 718 mmHg 25%
    09:00 +20°C° 0 mm 3 mps 718 mmHg 23%
    10:00 +21°C° 0 mm 3 mps 718 mmHg 20%
    11:00 +22°C° 0 mm 3 mps 718 mmHg 18%
    12:00 +24°C° 0 mm 2 mps 717 mmHg 17%
    13:00 +25°C° 0 mm 2 mps 717 mmHg 15%
    14:00 +26°C° 0 mm 2 mps 716 mmHg 14%
    15:00 +26°C° 0 mm 2 mps 716 mmHg 13%
    16:00 +27°C° 0 mm 2 mps 716 mmHg 13%
    17:00 +27°C° 0 mm 2 mps 716 mmHg 13%
    18:00 +26°C° 0 mm 2 mps 716 mmHg 14%
    19:00 +26°C° 0 mm 3 mps 716 mmHg 15%
    20:00 +25°C° 0 mm 2 mps 716 mmHg 16%
    21:00 +25°C° 0 mm 2 mps 716 mmHg 16%
    22:00 +24°C° 0 mm 2 mps 716 mmHg 17%
    23:00 +24°C° 0 mm 2 mps 716 mmHg 17%

    Tomorrow, 21 April, Saturday

    Time Temperature Precipitation Wind Pressure Humidity
    00:00 +23°C° 0 mm 1 mps 716 mmHg 18%
    01:00 +23°C° 0 mm 1 mps 716 mmHg 18%
    02:00 +22°C° 0 mm 1 mps 716 mmHg 19%
    03:00 +22°C° 0 mm 1 mps 716 mmHg 20%
    04:00 +21°C° 0 mm 1 mps 715 mmHg 20%
    05:00 +22°C° 0 mm 1 mps 716 mmHg 19%
    06:00 +23°C° 0 mm 1 mps 717 mmHg 18%
    07:00 +24°C° 0 mm 1 mps 717 mmHg 16%
    08:00 +25°C° 0 mm 1 mps 717 mmHg 14%
    09:00 +27°C° 0 mm 1 mps 718 mmHg 12%
    10:00 +28°C° 0 mm 2 mps 718 mmHg 10%
    11:00 +29°C° 0 mm 2 mps 718 mmHg 9%
    12:00 +31°C° 0 mm 2 mps 717 mmHg 8%
    13:00 +32°C° 0 mm 2 mps 717 mmHg 8%
    14:00 +32°C° 0 mm 2 mps 717 mmHg 7%
    15:00 +34°C° 0 mm 2 mps 716 mmHg 7%
    16:00 +34°C° 0 mm 2 mps 716 mmHg 7%
    17:00 +34°C° 0 mm 2 mps 716 mmHg 7%
    18:00 +33°C° 0 mm 3 mps 716 mmHg 8%
    19:00 +31°C° 0 mm 3 mps 716 mmHg 9%
    20:00 +31°C° 0 mm 3 mps 716 mmHg 10%
    21:00 +30°C° 0 mm 3 mps 716 mmHg 10%
    22:00 +29°C° 0 mm 3 mps 717 mmHg 10%
    23:00 +28°C° 0 mm 3 mps 717 mmHg 11%

    Day after tomorrow, 22 April, Sunday

    Time Temperature Precipitation Wind Pressure Humidity
    00:00 +28°C° 0 mm 3 mps 716 mmHg 12%
    01:00 +27°C° 0 mm 3 mps 716 mmHg 12%
    02:00 +26°C° 0 mm 3 mps 716 mmHg 13%
    03:00 +26°C° 0 mm 3 mps 716 mmHg 13%
    04:00 +25°C° 0 mm 3 mps 716 mmHg 14%
    05:00 +26°C° 0 mm 3 mps 716 mmHg 13%
    06:00 +26°C° 0 mm 3 mps 717 mmHg 13%
    07:00 +27°C° 0 mm 3 mps 717 mmHg 12%
    08:00 +29°C° 0 mm 3 mps 718 mmHg 10%
    09:00 +31°C° 0 mm 3 mps 718 mmHg 9%
    10:00 +34°C° 0 mm 3 mps 718 mmHg 7%
    11:00 +35°C° 0 mm 3 mps 718 mmHg 7%
    12:00 +36°C° 0 mm 3 mps 717 mmHg 7%
    13:00 +37°C° 0 mm 3 mps 717 mmHg 7%
    14:00 +38°C° 0 mm 3 mps 716 mmHg 7%
    15:00 +38°C° 0 mm 2 mps 716 mmHg 7%
    16:00 +39°C° 0 mm 2 mps 715 mmHg 7%
    17:00 +38°C° 0 mm 2 mps 715 mmHg 8%
    18:00 +37°C° 0 mm 2 mps 715 mmHg 8%
    19:00 +36°C° 0 mm 3 mps 716 mmHg 9%
    20:00 +35°C° 0 mm 3 mps 716 mmHg 9%
    21:00 +34°C° 0 mm 3 mps 716 mmHg 10%
    22:00 +33°C° 0 mm 3 mps 717 mmHg 10%
    23:00 +33°C° 0 mm 3 mps 716 mmHg 11%

    23 April, Monday

    Time Temperature Precipitation Wind Pressure Humidity
    00:00 +31°C° 0 mm 3 mps 716 mmHg 11%
    01:00 +30°C° 0 mm 3 mps 716 mmHg 11%
    02:00 +30°C° 0 mm 3 mps 716 mmHg 12%
    03:00 +29°C° 0 mm 3 mps 716 mmHg 13%
    04:00 +29°C° 0 mm 3 mps 716 mmHg 14%
    05:00 +29°C° 0 mm 3 mps 716 mmHg 13%
    06:00 +29°C° 0 mm 3 mps 717 mmHg 13%
    07:00 +30°C° 0 mm 2 mps 717 mmHg 13%
    08:00 +31°C° 0 mm 2 mps 718 mmHg 12%
    09:00 +34°C° 0 mm 2 mps 718 mmHg 11%
    10:00 +36°C° 0 mm 2 mps 718 mmHg 10%
    11:00 +37°C° 0 mm 2 mps 717 mmHg 9%
    12:00 +38°C° 0 mm 2 mps 717 mmHg 9%
    13:00 +39°C° 0 mm 2 mps 716 mmHg 8%
    14:00 +39°C° 0 mm 2 mps 716 mmHg 8%
    15:00 +40°C° 0 mm 2 mps 715 mmHg 8%
    16:00 +42°C° 0 mm 3 mps 715 mmHg 8%
    17:00 +40°C° 0 mm 3 mps 715 mmHg 8%
    18:00 +39°C° 0 mm 3 mps 715 mmHg 9%
    19:00 +38°C° 0 mm 3 mps 715 mmHg 10%
    20:00 +37°C° 0 mm 3 mps 715 mmHg 10%
    21:00 +37°C° 0 mm 4 mps 715 mmHg 10%
    22:00 +36°C° 0 mm 4 mps 716 mmHg 11%
    23:00 +35°C° 0 mm 4 mps 715 mmHg 11%

    24 April, Tuesday

    Time Temperature Precipitation Wind Pressure Humidity
    00:00 +34°C° 0 mm 4 mps 715 mmHg 12%
    01:00 +34°C° 0 mm 4 mps 715 mmHg 12%
    02:00 +33°C° 0 mm 4 mps 715 mmHg 13%
    03:00 +33°C° 0 mm 3 mps 715 mmHg 14%
    04:00 +31°C° 0 mm 3 mps 715 mmHg 16%
    05:00 +31°C° 0 mm 2 mps 715 mmHg 16%
    06:00 +32°C° 0 mm 2 mps 716 mmHg 16%
    07:00 +32°C° 0 mm 1 mps 716 mmHg 16%
    08:00 +34°C° 0 mm 1 mps 716 mmHg 15%
    09:00 +35°C° 0 mm 1 mps 717 mmHg 13%
    10:00 +36°C° 0 mm 1 mps 717 mmHg 12%
    11:00 +37°C° 0 mm 1 mps 716 mmHg 11%
    12:00 +39°C° 0 mm 1 mps 716 mmHg 11%
    13:00 +40°C° 0 mm 1 mps 716 mmHg 10%
    14:00 +40°C° 0 mm 2 mps 715 mmHg 10%
    15:00 +41°C° 0 mm 2 mps 715 mmHg 10%
    16:00 +41°C° 0 mm 2 mps 714 mmHg 9%
    17:00 +40°C° 0 mm 2 mps 714 mmHg 10%
    18:00 +39°C° 0 mm 2 mps 714 mmHg 11%
    19:00 +39°C° 0 mm 2 mps 715 mmHg 12%
    20:00 +38°C° 0 mm 3 mps 715 mmHg 13%
    21:00 +37°C° 0 mm 4 mps 715 mmHg 14%
    22:00 +36°C° 0 mm 5 mps 716 mmHg 16%
    23:00 +34°C° 0 mm 8 mps 716 mmHg 21%

    25 April, Wednesday

    Time Temperature Precipitation Wind Pressure Humidity
    00:00 +33°C° 0 mm 10 mps 716 mmHg 26%
    01:00 +31°C° 0 mm 13 mps 715 mmHg 31%
    02:00 +29°C° 0 mm 13 mps 716 mmHg 34%
    03:00 +27°C° 0 mm 13 mps 716 mmHg 36%
    04:00 +26°C° 0 mm 14 mps 716 mmHg 38%
    05:00 +26°C° 0 mm 13 mps 717 mmHg 38%
    06:00 +26°C° 0 mm 13 mps 718 mmHg 38%
    07:00 +24°C° 0 mm 13 mps 719 mmHg 37%
    08:00 +27°C° 0 mm 13 mps 719 mmHg 34%
    09:00 +28°C° 0 mm 12 mps 719 mmHg 30%
    10:00 +29°C° 0 mm 12 mps 720 mmHg 27%
    11:00 +31°C° 0 mm 12 mps 719 mmHg 24%
    12:00 +33°C° 0 mm 12 mps 719 mmHg 21%
    13:00 +34°C° 0 mm 11 mps 718 mmHg 19%
    14:00 +34°C° 0 mm 11 mps 718 mmHg 18%
    15:00 +34°C° 0 mm 11 mps 718 mmHg 17%
    16:00 +34°C° 0 mm 11 mps 717 mmHg 15%
    17:00 +33°C° 0 mm 10 mps 717 mmHg 17%
    18:00 +32°C° 0 mm 10 mps 717 mmHg 18%
    19:00 +31°C° 0 mm 9 mps 718 mmHg 19%
    20:00 +31°C° 0 mm 9 mps 718 mmHg 22%
    21:00 +29°C° 0 mm 10 mps 718 mmHg 24%
    22:00 +28°C° 0 mm 10 mps 718 mmHg 26%
    23:00 +27°C° 0 mm 10 mps 718 mmHg 28%
    Show more